RH
15 15 15 15 14 14 13 12 12 12 12 13 14 14 14 14 14 14 14 15 15 15 14 14 14 14 15 15 15 15 14 13 12 12 11 11 11 10 10 10 10 9 9 10 10 11 10 9 10 14 21 25 23 19 16 16 17 17 15 11 8 7 7 7 7 8 8 9 9 10 11 11 12 12 12 12 11 10 8 8 8 10 18 35 56 72 79 79
16 15 15 15 14 13 13 13 13 14 14 15 16 16 16 15 15 15 15 16 15 16 16 15 15 15 14 14 15 14 14 13 13 12 11 11 11 11 11 10 10 10 10 10 10 10 11 11 10 10 11 17 24 27 25 20 15 15 17 17 13 9 7 7 7 7 8 8 8 9 9 9 9 9 9 8 8 8 8 8 8 14 31 56 78 89 90 85
16 15 14 14 14 14 15 15 15 16 16 17 17 17 17 16 16 17 16 16 16 16 16 16 16 15 15 14 14 14 13 13 12 12 12 12 11 11 12 12 11 11 10 10 10 10 10 11 11 12 11 10 12 17 24 28 25 18 13 12 13 13 10 8 7 7 7 7 7 8 8 8 8 8 8 8 9 8 8 7 11 25 51 76 91 97 97 90
16 16 15 16 16 16 17 17 17 18 18 18 18 18 18 18 17 17 17 17 17 17 16 16 16 16 15 15 14 13 13 13 12 13 12 12 13 12 13 13 12 12 12 11 10 10 10 11 11 12 12 12 11 10 11 17 24 26 22 15 9 9 10 9 8 8 8 8 8 8 8 8 7 7 7 6 6 8 13 24 43 64 81 92 99 103 102 94
17 18 18 18 18 19 19 19 19 19 19 19 19 19 18 18 17 17 17 17 17 17 16 16 16 16 15 14 14 13 13 13 13 13 13 13 13 14 14 14 14 13 13 13 12 12 11 10 11 12 13 13 13 13 11 10 12 18 24 24 17 11 9 8 7 7 7 7 7 7 7 8 7 9 11 13 18 25 39 59 81 96 100 101 101 101 98 89
20 21 21 21 21 21 21 20 20 20 20 19 19 19 18 18 17 17 17 17 17 17 16 15 16 15 15 14 13 14 13 13 13 13 13 14 14 15 15 15 15 16 15 14 13 13 12 12 11 11 12 13 14 14 14 13 11 10 13 18 21 20 18 16 14 13 13 14 15 16 15 15 15 16 17 19 21 24 33 48 64 74 77 79 81 83 79 72
23 23 23 22 22 21 21 21 21 21 21 21 21 20 19 18 17 17 17 17 16 16 16 15 15 15 14 14 14 14 14 13 14 14 14 14 15 15 16 16 17 17 16 16 15 15 14 13 13 12 12 12 13 15 15 15 14 13 11 11 13 15 17 18 18 18 19 18 19 18 16 14 12 10 10 9 8 8 9 14 24 36 49 62 72 73 67 64
23 23 23 23 23 23 22 23 22 22 22 21 21 20 19 18 17 17 16 16 16 15 15 15 14 14 14 14 14 14 14 14 15 15 15 14 15 15 16 17 17 17 17 17 16 16 15 15 14 14 14 14 13 13 14 15 15 15 14 12 11 10 11 11 12 12 12 12 11 10 8 8 7 6 7 6 6 6 5 8 15 31 54 73 77 71 67 68
25 25 25 25 25 24 24 23 22 21 21 20 20 19 18 18 17 16 16 15 15 15 14 14 14 13 14 14 14 15 14 15 16 16 17 16 16 16 16 17 16 17 17 17 17 16 16 17 17 16 15 15 15 15 14 14 15 15 15 14 12 12 11 10 10 10 11 11 10 10 9 9 8 8 8 7 7 6 7 8 14 37 62 75 76 69 66 63
26 25 25 24 23 23 22 21 21 20 19 20 20 19 18 17 17 16 16 15 15 15 14 14 14 13 14 15 16 16 15 17 18 18 19 19 19 17 17 17 16 16 17 17 17 16 17 19 19 18 17 16 16 17 16 15 14 15 15 15 14 13 13 12 11 11 12 12 12 11 10 10 9 9 8 7 8 7 8 8 16 46 68 74 77 66 53 45
24 24 23 23 22 22 21 21 20 20 20 21 22 22 20 19 19 19 18 18 17 16 16 16 16 16 17 18 20 18 16 19 20 19 21 21 20 20 18 18 17 17 17 17 16 15 18 22 21 17 17 18 19 18 17 17 16 15 14 14 14 14 14 13 12 12 13 13 13 12 11 10 10 10 8 8 9 8 10 11 17 44 67 76 76 58 42 38
34 33 32 31 30 29 28 28 27 26 26 29 32 32 29 27 27 26 26 25 23 21 21 21 21 21 22 23 25 22 19 22 23 22 23 22 21 20 19 19 18 17 17 16 16 15 17 23 23 18 17 20 20 19 17 18 18 17 16 14 14 14 14 13 12 13 13 14 14 13 11 11 11 10 9 9 10 9 12 13 17 39 66 77 70 54 44 41
49 47 45 42 40 39 38 37 35 34 35 37 41 42 39 37 36 35 35 33 31 29 27 27 27 26 27 28 28 24 22 25 25 24 23 22 21 20 20 19 18 17 17 16 16 15 16 22 23 18 18 21 20 19 18 18 19 19 18 16 15 14 14 12 12 12 13 13 15 15 13 11 12 10 11 11 10 12 13 15 24 46 66 68 60 54 47 43
56 55 54 52 50 48 48 47 45 42 42 44 46 48 46 45 43 42 40 39 37 34 32 31 31 30 29 30 29 26 26 26 26 25 23 21 21 20 20 19 18 17 17 16 16 15 15 18 20 18 19 19 17 19 21 19 19 20 21 20 19 16 15 13 12 12 12 13 14 16 14 12 12 11 12 12 11 14 16 18 30 46 56 57 56 53 45 43
52 52 52 52 51 51 51 52 52 49 48 48 49 50 49 48 46 44 42 41 39 37 35 33 32 32 31 31 29 27 27 26 25 24 22 21 21 20 19 18 17 17 16 15 15 15 15 15 16 16 17 16 17 21 23 20 19 21 21 21 22 20 18 16 14 13 12 12 14 16 16 13 12 11 13 14 11 15 18 20 28 38 47 53 52 46 41 41
43 43 43 44 44 44 46 48 49 49 48 49 49 49 49 48 46 44 42 41 39 37 35 33 32 31 30 30 28 27 26 26 24 23 22 21 20 19 18 17 16 15 15 15 14 14 14 14 15 15 14 17 20 22 23 22 19 19 19 20 24 24 21 19 17 15 14 13 13 15 17 14 12 12 13 14 11 16 22 21 25 31 40 49 47 40 38 38
39 38 38 38 39 40 42 45 46 46 46 46 47 46 46 46 44 42 40 39 37 36 34 32 31 30 29 28 27 26 25 24 23 22 21 19 19 18 16 16 15 15 14 13 14 13 13 13 13 14 13 16 20 23 28 26 17 15 18 20 24 27 25 23 21 18 16 15 13 14 17 16 14 12 13 15 11 15 24 26 26 30 37 44 45 40 36 38
44 43 42 41 41 42 43 46 46 46 45 45 45 44 43 42 40 39 37 36 34 33 32 30 29 28 27 26 25 24 23 22 21 20 19 18 17 16 15 15 14 13 13 13 13 12 12 12 12 13 14 16 22 28 31 24 15 15 19 22 26 29 29 27 25 23 20 17 15 14 16 17 15 13 13 16 14 13 22 30 30 32 38 42 45 42 39 41
48 48 47 46 45 45 44 45 44 43 43 42 41 40 39 38 36 35 33 32 31 29 28 27 26 25 24 23 23 22 21 20 19 18 18 17 16 15 14 14 13 13 12 12 12 12 12 11 12 13 14 16 19 23 23 18 14 15 18 25 30 32 32 31 30 28 24 20 17 15 16 17 17 15 13 16 17 11 15 28 34 38 41 41 42 41 40 43
45 45 46 45 44 42 41 40 40 40 39 38 37 36 35 34 32 31 30 29 28 27 26 25 24 23 22 22 21 21 20 19 18 18 17 17 16 15 14 13 13 12 12 11 11 11 11 11 12 12 12 12 13 15 17 16 17 19 21 29 35 37 36 35 34 32 27 23 21 17 16 17 18 17 15 17 20 15 11 19 31 38 41 42 40 39 40 42
37 38 39 39 38 37 36 36 35 35 35 34 33 32 31 30 28 28 28 27 27 26 25 25 24 23 22 21 20 20 20 19 19 18 17 17 15 14 14 14 13 12 12 11 11 11 11 11 10 10 10 11 11 14 17 18 20 25 30 35 41 43 40 38 38 35 29 26 25 21 17 17 18 19 18 17 20 19 12 12 21 29 35 38 37 37 39 39
33 33 33 33 33 32 32 31 31 30 30 30 29 28 27 27 26 26 26 27 27 26 26 26 25 24 23 21 21 20 20 19 18 18 17 15 15 15 14 13 13 12 12 12 12 12 11 10 10 10 10 10 11 13 16 18 19 29 38 41 45 48 41 38 40 38 31 28 29 25 20 18 17 19 20 17 19 21 15 11 16 21 27 30 31 35 36 37
30 30 29 30 30 29 28 27 27 26 26 27 27 26 24 24 25 25 26 27 28 27 26 25 25 24 23 22 21 20 20 19 18 17 17 16 16 16 15 14 13 12 13 15 13 11 10 10 10 11 11 10 11 11 14 15 16 25 38 44 46 44 37 34 38 39 34 30 33 31 25 21 18 19 22 17 17 22 18 11 14 19 22 25 27 31 34 39
32 32 32 32 32 31 30 28 27 27 27 27 27 27 26 25 26 26 26 28 27 26 26 25 24 23 22 22 20 20 20 19 19 18 16 16 16 17 17 14 12 13 17 18 14 13 11 10 12 11 11 10 10 11 11 13 13 18 30 41 42 36 30 29 32 38 37 32 36 36 30 25 20 19 22 19 16 20 21 13 12 18 21 23 27 30 35 40
31 32 32 32 32 31 31 30 29 28 28 28 27 27 26 25 25 25 25 25 24 23 23 23 22 22 21 21 20 19 18 18 20 19 16 15 15 16 17 15 14 18 21 20 17 16 13 12 14 13 13 12 12 12 11 11 12 12 19 30 32 26 24 24 27 38 43 38 38 40 36 31 26 21 21 21 18 18 21 16 11 16 20 24 29 32 35 36
25 26 26 26 27 27 27 26 26 26 25 25 24 23 23 22 21 21 21 21 20 20 21 20 20 21 20 20 19 18 18 19 20 18 16 16 15 16 18 19 21 22 21 21 21 22 17 14 16 16 14 13 13 13 12 11 11 11 13 17 18 18 20 23 26 37 48 46 42 44 43 37 32 27 22 20 20 18 21 18 11 11 16 18 23 27 28 26
20 21 23 23 24 25 25 24 23 22 22 22 21 21 20 19 19 18 18 18 18 19 19 19 18 18 19 19 18 17 18 20 19 18 18 18 17 16 17 20 24 26 23 21 25 27 20 15 18 19 17 16 17 15 13 11 11 10 10 10 13 13 17 23 24 35 50 49 45 48 49 44 38 32 27 22 20 19 20 20 12 8 10 10 12 15 16 15
17 18 20 22 23 24 26 26 25 22 21 20 20 20 20 19 18 17 17 17 17 17 18 19 17 16 18 20 20 17 17 20 19 18 19 19 17 16 17 20 26 30 25 21 27 29 21 19 22 23 21 22 21 16 13 13 13 11 10 10 12 12 14 19 22 35 49 51 51 53 52 49 43 35 31 27 20 18 21 21 15 9 8 8 7 8 8 8
17 17 18 19 20 22 23 25 26 24 22 21 20 20 20 19 18 17 17 16 17 17 18 19 18 16 16 19 23 22 19 19 20 20 20 19 20 19 19 20 25 29 25 24 32 31 24 26 27 27 29 27 20 16 15 16 15 12 11 11 11 11 12 15 20 31 44 51 56 55 53 53 45 37 36 32 21 18 21 23 18 11 8 8 7 7 6 6
17 17 17 17 18 18 19 20 21 22 21 20 20 20 20 19 18 17 16 15 17 18 18 18 19 18 16 16 20 25 26 23 19 20 22 21 20 21 21 19 20 24 25 26 33 34 30 30 30 33 37 29 19 17 18 19 16 13 14 13 12 11 10 12 15 21 36 53 55 48 50 56 48 41 41 33 22 20 23 23 20 14 10 8 7 7 6 7
17 17 17 17 18 17 18 17 17 19 19 19 18 18 18 18 18 17 16 17 18 18 18 18 18 19 19 17 17 22 29 32 26 19 21 24 22 20 23 22 20 24 27 27 34 40 38 33 34 41 41 30 22 21 21 20 17 16 17 15 12 11 10 11 12 15 29 47 47 40 48 57 51 47 43 31 25 26 24 22 21 20 16 11 8 7 7 7
16 16 16 16 16 17 17 17 17 17 17 18 18 17 17 17 16 16 18 20 20 18 17 19 19 20 22 21 19 19 24 32 35 26 20 22 23 23 24 26 26 27 28 31 39 43 39 34 37 42 38 29 25 23 23 23 19 17 17 15 13 12 11 11 11 12 19 30 32 33 47 57 54 49 42 31 30 33 25 20 22 22 21 17 12 8 7 7
16 16 15 15 15 15 16 16 16 16 16 17 17 17 17 17 16 17 21 24 21 18 18 20 20 20 24 25 23 21 21 26 34 35 28 22 22 25 26 26 27 27 28 31 34 33 31 29 31 36 35 30 28 26 25 25 20 15 15 14 14 14 15 14 13 12 13 17 20 26 42 55 54 53 46 33 34 38 29 22 23 23 22 22 18 12 8 8
17 16 16 17 16 16 16 15 15 15 15 15 15 16 17 16 18 19 22 23 22 21 21 22 22 20 23 27 27 24 23 23 28 34 35 29 24 25 28 29 29 29 32 33 31 29 30 27 27 36 41 35 29 27 26 23 18 16 15 16 18 21 21 18 14 12 11 12 14 19 36 51 53 56 49 34 34 40 37 29 25 24 24 23 23 19 11 8
17 16 17 17 17 17 17 17 17 16 16 15 14 14 15 16 18 19 20 20 22 25 25 24 24 22 21 25 29 29 26 25 25 28 34 35 31 28 28 31 32 31 32 33 32 33 33 32 31 35 40 36 29 27 25 21 20 18 16 19 24 22 18 16 14 13 11 11 12 15 28 40 46 54 51 39 35 39 41 38 30 26 25 23 25 26 19 11
16 15 15 16 17 16 16 17 17 17 17 16 15 14 14 15 16 17 19 19 20 24 27 27 25 23 22 22 27 31 30 29 27 27 30 34 35 33 29 28 29 30 29 28 30 31 32 36 37 32 35 39 35 30 25 21 21 18 17 23 24 17 15 18 18 16 15 15 14 14 20 26 34 46 51 45 39 39 42 44 38 29 26 25 24 27 27 18
16 14 14 15 16 16 15 16 16 16 17 17 17 16 16 15 15 16 17 19 19 21 25 29 27 24 23 21 23 30 33 33 31 29 29 30 33 36 34 29 27 29 29 27 27 28 29 34 34 28 31 37 33 26 22 20 19 17 20 24 20 15 19 23 22 22 25 22 17 15 16 17 22 35 46 47 42 40 41 43 43 36 28 28 26 25 30 27
14 13 12 12 13 14 14 15 15 16 15 15 16 16 17 16 15 15 16 17 19 20 21 26 28 26 24 22 22 26 33 37 36 33 30 29 30 33 35 34 30 28 29 29 27 27 29 33 32 30 33 34 29 25 22 20 19 20 22 22 18 19 26 28 26 28 28 23 18 17 15 13 16 22 32 41 40 36 36 39 42 42 35 31 28 25 27 30
12 11 11 10 10 11 12 12 13 14 14 14 14 15 16 17 17 16 16 17 18 19 20 22 25 27 25 24 22 24 30 36 38 37 33 30 29 30 33 33 33 31 29 30 30 27 29 33 33 33 38 37 30 28 25 21 22 23 22 21 20 24 31 31 27 28 29 25 24 26 22 15 13 14 19 29 34 33 33 34 37 41 41 37 31 26 24 27
12 12 12 11 10 10 10 10 11 12 12 13 12 12 13 16 17 17 16 17 18 19 20 20 22 25 26 25 23 22 26 31 36 38 36 32 30 30 31 31 31 32 31 31 32 30 29 31 33 34 36 36 30 28 28 25 25 25 24 23 23 26 31 30 26 29 32 30 30 31 27 17 13 13 14 18 27 34 36 37 37 38 43 43 36 30 26 24
10 11 11 11 12 11 11 11 11 11 11 12 11 11 11 12 14 16 17 17 18 18 19 19 20 22 24 26 25 23 23 27 32 36 37 36 33 31 30 29 29 29 30 32 31 31 30 29 32 34 32 32 30 28 29 29 28 28 26 24 23 25 28 25 24 28 33 36 34 29 25 22 17 15 15 14 18 28 37 42 44 42 44 46 43 38 32 27
6 6 7 8 9 10 10 11 12 12 11 12 12 11 10 9 10 13 15 17 18 18 18 19 19 20 22 25 26 25 23 23 28 33 36 37 37 34 31 30 29 27 28 30 29 30 30 28 32 35 32 31 31 29 29 29 29 28 25 23 21 22 23 22 26 30 32 35 33 27 25 26 26 23 21 19 17 19 27 38 45 47 46 46 46 44 39 33
3 3 3 4 4 5 7 8 10 11 12 12 13 14 13 11 9 9 11 14 17 17 18 19 19 19 20 23 25 26 25 22 24 29 34 36 37 37 35 32 30 28 27 28 28 29 30 29 31 34 34 31 31 31 29 29 29 25 25 23 20 21 22 25 31 31 29 31 33 38 36 28 28 31 29 27 24 18 20 27 37 45 47 47 46 45 45 40
2 2 2 2 2 3 3 4 5 7 9 11 12 14 15 14 12 10 9 10 13 16 17 18 19 18 19 21 23 25 26 24 22 23 29 34 36 37 38 35 32 29 28 27 28 29 30 29 29 32 33 29 28 29 27 27 27 23 24 23 20 22 24 27 31 28 29 33 36 50 51 31 27 35 32 31 30 23 19 19 25 36 44 47 46 44 46 46
2 2 1 1 2 2 2 2 3 4 5 7 9 11 14 16 15 14 12 9 9 12 15 16 18 18 18 19 22 24 25 25 23 21 24 30 34 36 37 38 35 31 29 27 27 28 30 30 30 30 30 27 26 27 26 28 28 24 24 22 20 23 23 28 30 27 33 38 39 57 60 34 27 35 31 31 32 27 23 18 17 25 34 42 45 42 43 46
1 1 1 1 1 2 2 2 2 3 3 4 6 8 10 14 16 16 15 13 10 10 11 14 16 18 18 19 20 22 24 25 24 21 21 25 31 34 35 37 37 34 30 28 27 28 29 30 30 30 29 27 26 27 29 31 31 27 25 22 22 23 23 27 27 25 33 37 39 60 60 32 27 34 29 29 30 27 27 23 17 17 21 31 39 41 43 44
1 1 1 1 1 1 2 2 2 2 3 3 3 5 7 10 13 16 17 16 14 11 10 11 13 16 18 18 19 21 23 24 24 22 21 21 26 32 33 34 36 36 34 30 27 28 28 28 29 31 30 26 25 26 27 29 30 29 27 23 22 23 22 24 23 22 30 31 37 63 64 38 28 29 27 29 28 26 27 25 21 18 16 20 26 33 40 43
1 1 1 1 1 1 1 1 2 2 2 3 3 3 4 6 9 13 16 17 16 14 11 10 10 13 16 17 18 19 21 23 23 23 22 20 21 27 31 32 32 34 35 34 30 28 28 28 27 29 31 28 25 25 25 26 27 29 27 23 22 22 21 21 20 21 24 23 34 56 56 36 26 22 21 25 25 25 25 24 24 23 20 20 20 22 28 35
1 1 1 1 1 1 1 1 1 2 2 2 2 2 3 4 6 9 12 15 16 16 15 13 10 10 13 16 18 18 19 22 22 22 22 21 20 21 26 30 31 30 32 34 34 31 29 28 27 27 29 30 27 25 24 24 24 26 28 26 22 21 20 20 19 20 20 20 29 38 34 29 27 21 17 18 20 22 24 25 27 26 24 25 24 23 23 24
1 1 1 1 1 1 1 1 1 1 1 1 2 2 2 3 4 6 8 11 14 15 16 16 13 10 10 14 16 17 18 19 21 22 21 21 20 19 21 25 28 30 29 29 32 34 32 30 28 27 27 29 29 26 24 22 22 24 26 27 24 21 20 20 20 22 21 21 27 29 24 27 33 27 20 17 15 17 20 23 27 29 27 26 25 25 24 22
1 1 1 1 1 1 1 1 1 1 1 1 1 2 2 3 3 4 6 8 11 13 15 17 17 13 10 10 14 16 17 18 20 21 22 22 21 20 19 21 24 28 29 27 28 31 33 32 31 29 27 27 28 28 25 22 20 21 24 27 27 24 21 20 22 24 23 24 30 31 25 27 36 36 28 20 15 15 16 19 23 26 27 25 24 24 24 23
1 1 1 1 1 1 1 1 1 1 1 1 1 1 2 2 3 3 4 6 8 10 12 15 17 17 14 10 10 14 17 18 19 20 21 21 21 20 19 19 20 24 27 27 25 26 29 31 32 31 28 26 26 27 27 24 20 19 21 23 26 27 24 22 23 24 24 25 30 32 30 33 38 37 28 20 17 16 15 16 18 20 21 22 23 23 23 23
Wind_Speed
32 31 31 30 29 28 27 26 25 24 23 22 22 21 20 20 19 18 17 18 18 18 17 16 16 15 14 15 17 17 17 15 13 10 8 7 5 5 4 3 4 4 4 4 4 3 3 4 4 5 6 8 12 16 19 21 23 24 25 29 31 32 34 35 36 36 36 36 36 37 37 37 37 37 37 36 35 34 33 32 31 30 28 26 25 25 24 24
33 32 31 30 29 28 27 26 25 24 23 23 22 22 21 21 20 19 19 19 19 19 20 19 19 18 16 16 17 19 19 17 16 13 11 9 7 6 6 5 4 4 4 5 5 5 4 4 4 5 5 6 8 10 12 16 19 21 23 25 27 28 30 31 33 33 34 34 35 35 35 35 35 36 35 34 33 32 31 31 30 29 27 26 25 24 24 23
33 32 31 30 29 28 28 27 26 25 25 24 23 23 23 22 21 21 21 21 21 21 22 22 22 21 20 19 18 19 20 19 18 16 14 12 10 8 8 8 7 6 6 6 6 7 7 6 6 6 6 6 7 7 8 9 12 16 19 22 24 25 26 27 29 30 31 32 33 33 33 34 34 34 33 32 32 32 31 31 30 28 27 26 25 24 24 23
33 32 31 31 30 29 29 28 27 27 26 26 25 25 25 24 24 23 23 23 23 23 23 23 24 24 23 22 21 20 21 20 20 19 17 15 13 11 10 11 10 9 8 8 7 8 9 8 8 8 8 8 7 7 7 6 7 9 13 17 19 21 22 23 25 27 28 29 30 31 31 32 31 31 31 31 32 32 31 30 29 27 26 25 24 24 23 22
33 33 32 32 31 30 30 30 29 29 28 28 28 28 28 27 26 26 25 25 25 26 25 24 25 26 25 25 24 22 22 21 21 21 20 19 17 14 14 13 13 12 11 10 9 9 9 10 10 9 9 9 9 8 8 7 6 6 7 10 13 15 18 20 22 23 24 25 27 28 28 29 29 29 29 30 30 31 30 29 28 26 26 26 26 25 24 23
34 34 34 33 33 32 32 32 32 31 31 31 31 32 31 30 29 28 28 28 28 28 28 26 26 27 27 26 26 25 24 23 23 23 23 22 21 18 17 17 15 15 15 13 11 11 11 11 12 11 11 11 10 9 9 8 7 6 6 7 8 10 13 16 17 18 19 20 21 23 23 24 24 24 24 26 26 27 28 28 28 28 27 26 25 24 23 21
36 36 36 36 36 35 35 35 35 35 34 35 35 36 35 33 32 31 31 31 30 30 30 29 28 28 28 28 27 27 26 25 24 25 26 25 25 23 21 20 19 18 18 16 14 14 13 12 13 13 13 13 11 11 11 10 9 8 7 7 7 7 9 10 11 11 12 13 14 16 17 17 17 17 18 20 22 24 26 27 27 26 23 22 20 20 19 17
39 39 39 39 39 39 39 38 38 38 38 38 39 39 38 37 35 35 34 34 33 32 32 31 30 30 30 29 29 29 29 28 27 27 27 28 28 26 25 24 23 21 21 20 18 16 15 15 14 15 15 15 13 13 12 12 11 11 10 9 9 8 8 8 8 7 7 8 10 12 13 13 13 14 15 17 19 21 23 24 23 21 17 16 16 17 17 16
42 42 42 42 42 42 42 42 41 41 40 40 42 42 41 40 38 38 37 36 36 34 34 33 33 32 31 31 31 32 31 30 30 29 29 29 29 29 27 27 26 24 24 24 22 19 17 17 16 17 17 16 16 15 14 14 14 14 13 12 12 11 10 10 9 8 7 7 9 10 12 13 13 14 14 15 17 19 20 21 20 17 13 12 13 14 15 15
45 45 45 45 45 45 45 44 44 43 42 42 43 44 43 41 40 40 39 39 38 37 36 35 35 34 33 33 34 34 32 31 32 30 30 30 30 30 29 28 27 26 26 26 25 22 19 19 20 21 19 18 18 18 16 15 15 16 15 15 15 14 13 12 11 9 7 7 8 10 11 13 13 13 14 14 16 18 19 20 18 14 12 11 10 10 11 11
47 47 47 47 47 46 46 46 45 44 44 44 45 45 45 43 42 42 42 41 41 39 38 37 37 35 35 35 36 36 33 32 33 31 30 30 30 30 30 29 29 28 27 27 27 24 21 21 24 24 21 20 21 21 19 18 17 17 17 17 17 16 15 15 14 11 9 8 8 10 11 12 13 13 13 13 15 17 18 18 16 12 11 9 7 7 8 10
50 49 49 49 49 48 48 48 47 46 45 46 47 47 47 45 45 45 44 44 43 42 40 39 38 37 37 36 38 38 33 33 34 33 32 32 31 31 31 31 30 30 29 29 29 26 23 25 28 27 24 22 23 23 23 21 20 18 18 18 18 17 18 18 16 13 12 9 8 9 11 12 12 12 13 13 15 16 16 14 11 9 9 7 6 7 9 11
51 51 51 51 50 50 49 49 49 48 47 47 48 48 48 47 47 46 46 46 45 44 42 41 40 39 38 38 39 38 34 34 36 36 35 34 33 33 33 33 33 32 32 31 31 29 27 28 31 29 27 26 25 25 25 24 23 21 19 19 18 19 19 19 17 15 14 11 9 9 10 11 12 12 12 13 14 14 13 9 6 8 7 6 6 8 10 13
52 52 52 52 51 50 50 50 50 49 48 48 49 49 48 48 48 48 47 47 47 46 44 43 42 41 40 40 41 39 36 37 38 39 38 35 34 35 35 35 35 35 35 34 34 33 32 32 33 32 31 30 28 28 28 27 25 24 22 20 19 20 20 21 19 17 16 12 9 9 10 11 11 11 11 11 12 12 9 5 6 8 7 6 7 9 12 14
54 54 53 53 53 52 52 52 52 51 50 50 51 50 50 49 50 49 48 48 48 48 46 45 43 43 42 42 43 40 38 40 41 41 40 37 36 38 38 37 37 37 37 37 37 36 36 36 36 36 35 32 30 31 31 30 28 27 25 23 21 21 21 21 20 18 17 14 10 10 10 10 11 11 10 10 10 9 7 3 6 9 8 7 9 11 13 15
58 58 57 57 56 55 55 55 55 54 53 53 53 52 51 51 51 51 50 50 50 50 49 47 45 45 44 44 45 42 40 43 44 42 40 39 39 40 40 38 38 38 38 39 39 39 39 39 39 38 37 35 35 34 34 34 32 29 27 25 24 23 23 22 21 20 17 15 12 10 10 10 10 10 9 9 8 7 5 4 7 8 9 8 9 11 12 14
60 60 60 59 58 57 56 57 57 56 55 54 54 54 53 52 53 53 53 52 52 52 51 49 48 47 47 46 47 44 43 45 45 43 42 42 42 41 40 39 38 39 40 41 41 41 41 42 41 40 39 38 38 37 38 38 34 30 29 28 27 26 25 23 22 21 18 16 13 11 10 10 10 10 10 9 8 5 3 4 7 8 9 9 9 10 11 13
61 61 61 60 59 58 57 57 58 57 56 56 56 56 55 54 54 54 55 54 54 53 52 52 51 50 49 48 48 47 45 46 46 44 43 43 43 42 40 39 39 39 40 41 41 41 41 43 43 42 41 41 42 42 43 40 34 32 32 30 30 29 27 25 24 23 20 17 14 12 11 10 9 10 11 9 8 5 2 5 7 8 8 9 9 9 10 12
62 62 62 62 61 60 59 59 59 59 59 58 57 58 57 56 56 56 57 57 57 55 54 55 54 52 51 49 49 48 46 46 46 45 44 44 43 41 40 40 39 39 39 40 39 40 41 43 45 46 45 45 46 46 45 40 35 35 34 32 33 32 30 27 26 25 22 18 15 13 12 10 9 10 11 9 8 6 1 5 8 8 8 8 9 9 9 12
66 66 66 66 65 63 62 62 62 62 62 61 60 60 60 59 58 58 59 59 58 57 56 57 56 55 53 50 49 49 48 46 46 46 44 44 43 41 41 41 39 39 38 38 38 40 42 45 47 47 46 45 45 46 45 41 37 37 36 35 35 35 33 30 28 27 24 19 16 15 14 12 10 9 11 10 8 7 3 4 8 9 9 8 8 9 10 12
69 69 69 69 69 68 66 65 65 65 66 65 63 63 62 62 61 60 61 61 60 59 58 58 57 57 56 52 49 49 48 46 46 46 44 44 43 41 41 40 40 39 38 38 39 41 43 45 45 44 43 43 45 46 46 43 40 39 39 39 38 39 37 33 31 30 27 22 18 16 15 14 11 9 11 10 8 7 5 3 7 10 10 9 9 10 11 13
73 72 72 72 72 72 70 68 68 67 68 67 66 65 64 64 63 62 62 62 62 60 59 59 57 59 58 52 49 48 46 48 48 46 44 43 42 42 41 40 41 39 37 39 41 42 43 41 40 40 41 42 45 47 48 48 44 42 43 42 43 44 39 35 33 32 29 25 20 17 17 16 13 10 11 12 9 8 6 3 5 8 10 11 11 11 13 14
75 75 75 75 75 75 73 72 71 70 70 70 70 68 67 66 66 65 63 63 64 61 60 61 58 58 59 54 49 46 46 49 49 46 44 42 42 43 42 40 40 38 37 41 42 42 40 38 38 40 40 42 45 47 49 49 46 45 46 47 48 47 41 37 36 33 31 28 22 20 18 18 16 12 12 14 10 8 7 4 4 6 9 11 12 13 14 15
76 76 75 75 76 76 75 73 72 71 71 71 70 69 68 67 66 65 63 62 64 63 61 61 59 59 60 55 48 45 47 50 49 48 46 42 42 44 43 42 39 37 39 42 42 41 39 36 38 40 40 41 43 45 48 49 48 48 49 52 53 47 41 38 36 34 34 31 26 22 20 20 19 15 14 15 12 10 8 5 4 6 8 11 13 14 15 15
76 76 76 75 76 77 76 75 73 71 72 72 71 70 68 68 67 66 64 62 63 65 64 61 60 60 60 55 48 47 49 50 51 51 46 44 43 43 44 42 38 38 41 41 40 41 40 36 37 39 39 39 41 43 46 48 48 48 50 54 53 46 41 38 36 36 36 34 29 24 22 23 21 18 17 16 13 12 10 6 4 6 9 11 13 14 15 15
79 78 78 77 77 79 79 77 76 74 73 73 72 71 70 69 69 67 66 64 63 67 68 63 61 62 61 57 52 51 49 51 55 52 45 46 46 44 43 41 40 42 42 40 39 41 40 37 36 38 39 39 40 42 44 44 45 46 50 53 50 45 42 40 38 36 36 36 32 27 27 26 24 22 19 17 15 13 11 8 6 7 11 12 14 15 16 16
81 80 80 80 79 80 81 81 80 78 76 75 74 73 72 71 71 69 69 66 64 67 69 66 63 61 61 59 56 54 51 53 57 51 46 50 49 45 43 42 43 44 44 41 38 41 40 35 34 37 36 36 38 40 40 38 41 44 45 46 47 45 43 41 38 36 37 38 34 31 31 29 28 25 21 19 18 15 12 9 7 7 10 12 14 16 17 17
83 82 81 81 81 81 81 82 83 82 79 78 76 75 75 74 73 71 71 69 67 67 68 69 66 62 61 60 59 58 54 54 56 53 50 52 51 46 44 43 44 47 46 40 38 41 39 33 32 33 32 35 38 37 34 35 38 40 40 42 45 45 44 43 40 38 40 39 35 36 35 34 33 28 22 22 21 17 13 10 9 8 8 10 13 16 18 18
85 84 83 83 83 83 82 83 84 85 83 81 79 78 77 76 75 74 73 70 68 67 68 69 69 66 63 62 61 60 58 56 57 55 54 54 52 49 47 47 47 48 45 39 39 41 37 33 32 29 30 35 36 33 32 35 37 36 36 39 42 43 43 43 42 42 42 40 40 42 40 39 36 29 26 26 23 19 15 13 12 10 9 10 11 15 17 18
86 86 84 84 85 85 85 85 85 87 86 85 83 81 80 79 78 77 75 71 69 68 68 69 70 69 67 65 63 61 60 59 58 57 56 56 55 52 50 50 49 47 44 41 41 41 38 36 32 29 32 35 33 31 31 33 34 33 34 37 38 39 40 42 43 44 44 44 46 46 43 41 37 31 31 30 24 18 17 16 15 12 12 11 11 14 16 19
86 86 84 84 84 85 86 86 86 86 87 87 86 84 83 82 81 80 76 72 71 70 69 70 71 71 69 68 66 64 62 62 61 59 57 57 57 54 52 51 49 47 44 42 42 43 41 37 33 33 36 35 32 30 30 31 31 30 32 34 35 35 36 39 42 44 47 50 50 47 44 41 38 35 35 32 24 20 20 20 17 15 14 13 13 14 16 19
87 86 85 84 84 85 85 86 86 85 85 86 86 85 85 84 82 79 75 74 75 73 71 71 71 72 72 71 69 67 65 64 63 62 59 58 58 56 54 53 51 49 46 44 46 48 46 42 39 39 39 37 33 32 30 29 30 30 31 32 31 32 33 36 40 44 49 51 49 46 44 44 42 38 36 32 27 23 23 22 19 18 18 16 16 16 16 19
89 88 87 87 87 87 86 87 87 87 85 85 85 85 85 84 80 77 75 77 77 75 73 72 72 74 74 74 72 70 68 67 65 64 62 60 59 58 57 56 54 51 49 49 52 52 50 46 43 41 41 39 36 34 32 30 31 31 30 29 28 28 29 32 37 42 46 49 48 45 45 47 45 40 37 35 32 28 26 24 22 21 20 19 18 18 17 18
92 91 90 89 90 89 89 89 89 89 89 87 86 86 85 82 79 77 77 79 78 76 75 74 74 75 76 76 75 73 72 70 68 67 65 63 60 59 59 58 55 52 51 52 52 50 48 45 43 42 44 44 40 38 35 33 32 30 27 25 23 23 27 31 34 37 41 45 45 44 47 50 48 44 41 37 35 32 28 26 25 23 22 21 20 20 20 19
95 94 92 92 92 91 91 91 91 91 91 91 90 88 85 82 81 80 80 80 79 78 77 75 76 77 78 78 77 77 75 72 70 69 68 66 63 63 63 61 58 56 55 54 52 50 47 45 46 47 47 45 42 40 37 33 32 30 25 21 21 25 28 29 30 32 35 40 43 46 50 51 50 48 44 39 38 36 32 30 28 27 25 23 21 22 22 22
97 97 96 94 94 94 94 93 92 92 92 92 92 91 87 85 85 83 81 80 80 79 79 79 78 78 79 79 79 79 78 75 73 72 71 69 67 67 66 65 62 59 57 55 53 52 49 48 51 51 48 47 45 43 40 36 35 31 25 24 27 28 25 25 27 28 31 36 42 47 50 52 52 50 47 44 42 39 37 35 32 30 28 25 24 23 23 24
100 100 99 97 97 96 96 95 95 94 94 93 93 92 90 89 88 86 83 81 81 81 82 82 81 80 79 80 81 81 81 79 77 75 74 72 71 70 68 67 64 61 57 55 54 53 51 51 53 51 50 51 50 46 41 36 34 30 27 28 29 24 21 23 26 26 28 34 40 45 49 51 52 53 51 48 45 43 41 39 37 33 30 29 27 25 24 25
102 102 101 100 99 98 98 97 97 96 96 95 94 93 93 92 90 88 86 83 83 83 84 85 84 83 81 80 82 83 83 82 81 79 77 75 73 72 71 69 66 63 59 56 54 53 53 54 53 50 51 52 49 44 37 31 29 30 30 30 26 21 20 23 25 27 29 33 37 40 45 48 52 55 53 49 47 46 43 41 40 36 33 32 31 28 26 26
105 104 104 103 103 101 100 99 98 98 98 97 95 94 94 93 92 91 88 86 85 85 85 87 86 85 83 82 82 84 86 85 84 83 80 77 74 74 73 71 68 66 62 58 56 55 55 57 55 53 53 51 47 41 34 31 30 32 32 29 27 26 25 25 27 27 28 31 33 34 38 44 50 52 51 49 48 46 44 42 40 38 36 34 32 30 28 27
108 107 107 107 107 105 102 101 100 100 99 99 98 96 93 93 93 93 91 89 87 86 86 88 88 87 86 84 83 85 87 88 87 86 83 79 76 75 75 73 71 68 65 62 60 58 58 58 57 57 55 51 45 39 36 36 35 35 33 31 32 32 30 29 29 28 28 31 32 33 35 40 45 48 49 49 48 47 45 43 41 40 38 35 33 32 31 29
108 108 108 109 110 109 107 104 102 101 101 100 100 98 95 93 93 93 93 91 89 88 87 88 89 89 89 87 86 86 88 90 90 89 86 82 79 77 76 75 73 70 68 66 64 61 59 58 59 59 56 50 45 43 43 42 40 39 37 35 35 36 34 32 31 31 31 30 32 34 35 35 38 42 45 47 48 48 48 46 44 43 40 39 37 34 33 32
103 102 103 105 107 108 108 107 105 104 103 102 101 101 99 95 93 92 92 92 91 90 89 89 90 90 90 90 89 88 89 91 92 91 89 86 82 80 78 77 76 73 71 69 67 64 62 59 60 60 57 52 49 48 48 45 43 42 39 37 36 35 33 31 30 31 31 28 28 30 30 30 30 33 36 39 43 47 49 50 48 47 45 43 41 39 38 36
93 92 91 94 98 100 102 103 104 105 104 103 103 103 102 100 96 93 92 92 91 91 90 89 90 91 92 92 91 91 91 92 93 93 91 89 86 83 81 80 79 76 74 72 70 67 65 63 62 62 60 57 54 52 51 48 45 42 39 37 36 34 33 32 32 31 28 25 23 21 24 27 26 25 28 30 34 40 46 50 51 50 48 46 45 43 41 40
83 81 79 81 84 88 91 94 97 100 103 103 103 103 103 103 101 96 93 91 91 91 91 90 90 91 92 94 94 94 94 94 94 94 93 92 89 87 84 83 81 80 78 75 72 70 68 65 64 64 63 60 57 54 52 48 45 42 39 38 37 37 36 35 33 30 25 22 21 18 23 28 26 23 25 26 28 33 40 47 51 52 51 50 48 46 44 43
73 73 70 70 72 76 79 82 87 92 97 100 101 101 103 104 104 102 98 94 91 92 91 90 90 91 93 94 95 96 96 96 95 94 94 94 93 90 88 86 84 82 81 78 75 73 71 68 67 66 65 62 58 54 52 49 46 43 41 40 40 40 39 36 34 31 27 24 22 20 26 31 28 26 27 26 26 29 34 40 47 51 53 52 51 48 47 45
64 65 63 62 63 67 69 71 75 81 87 93 96 98 100 103 104 105 103 99 94 92 92 90 90 91 93 95 96 97 98 99 98 96 95 96 95 93 91 89 87 85 83 81 78 76 74 71 70 68 66 63 61 58 56 55 51 47 45 44 43 43 41 39 36 33 30 27 25 24 29 33 30 28 27 27 27 27 29 34 40 46 51 52 52 51 49 48
57 57 56 55 56 59 62 64 67 71 77 84 89 93 97 100 103 104 105 104 100 95 92 91 91 91 93 95 97 98 100 101 99 97 96 96 96 96 94 92 91 88 86 84 82 80 77 75 72 70 68 66 64 63 61 59 55 52 50 48 47 46 43 41 37 35 34 31 28 29 31 32 31 30 28 27 28 28 28 30 34 39 44 48 51 52 52 52
53 51 50 50 51 53 55 58 61 64 69 75 80 86 91 96 100 102 105 106 104 99 94 92 92 91 92 94 97 99 101 101 100 99 97 97 97 97 97 95 94 91 89 87 85 83 81 78 75 73 70 68 67 66 64 62 59 56 54 52 50 49 46 42 40 39 38 34 32 35 34 31 32 31 28 28 28 28 28 28 29 32 36 40 43 46 50 52
48 47 45 45 47 48 49 51 55 59 63 68 72 77 83 89 95 100 103 105 106 103 98 95 93 92 92 94 97 99 100 101 101 100 98 97 98 98 99 98 96 94 92 90 88 86 84 81 78 75 73 71 70 69 67 65 63 60 57 55 54 52 50 46 44 42 40 37 36 37 34 30 32 33 31 30 29 27 27 26 27 29 31 33 35 37 41 46
44 43 41 41 42 45 46 47 49 53 58 62 65 70 75 82 89 95 100 103 105 104 102 99 96 94 93 94 96 98 99 100 100 100 99 99 99 100 100 100 98 97 94 92 90 89 87 84 81 78 76 74 73 72 70 68 66 63 61 58 56 55 53 50 47 45 44 41 39 38 34 32 35 37 37 35 32 29 27 27 27 28 29 31 33 34 36 40
41 40 38 38 38 40 43 44 45 48 52 57 61 64 68 76 83 90 96 100 103 104 103 102 100 98 95 95 95 96 97 98 100 100 100 101 101 101 101 101 100 99 97 94 92 91 89 87 84 82 80 78 76 75 73 71 69 66 64 62 59 58 56 54 51 49 48 46 43 40 36 35 40 42 42 41 37 32 29 28 28 28 29 31 32 33 35 37
37 37 36 35 35 36 38 40 42 44 47 52 56 59 63 69 77 84 90 96 101 103 103 103 103 101 98 96 95 94 96 98 100 100 101 101 102 101 101 101 101 100 99 97 94 92 91 89 87 85 83 81 79 78 76 74 72 69 67 65 63 61 59 58 56 52 51 50 47 43 40 42 46 46 43 42 41 36 33 32 30 29 28 28 30 32 34 35
Wind_Direction
271 272 272 273 273 273 273 272 272 272 272 273 273 273 273 272 271 272 274 277 281 284 286 289 291 293 297 300 303 304 305 308 313 316 315 315 321 325 326 325 327 332 332 326 318 316 314 315 318 308 291 272 259 252 248 246 244 244 244 245 245 245 245 247 248 249 251 251 253 254 256 258 261 263 265 268 270 273 275 277 278 279 279 280 281 282 283 284
270 271 271 271 271 271 271 271 270 270 270 270 270 269 270 270 270 271 272 275 278 282 284 287 288 289 290 292 294 296 298 300 302 303 302 300 302 302 301 296 292 296 305 310 308 299 291 286 290 292 293 290 280 271 261 254 249 245 243 244 245 245 245 246 248 249 250 252 253 255 257 259 261 263 266 268 270 272 274 275 275 276 276 278 279 279 280 281
270 270 270 270 270 270 270 269 269 269 269 268 268 268 267 267 268 269 270 272 274 277 280 283 285 286 287 287 287 289 292 293 294 295 295 294 292 290 287 284 282 282 285 295 299 297 292 283 279 279 280 283 284 285 278 268 259 250 246 244 244 244 244 245 247 249 251 253 255 256 258 260 262 263 265 267 268 270 271 272 273 275 276 276 277 277 277 278
268 268 268 268 268 269 269 269 268 268 268 267 267 267 267 266 266 267 268 269 271 272 274 277 280 282 283 283 283 284 285 287 288 288 289 288 286 284 278 277 278 279 277 280 286 289 291 287 280 277 276 278 282 285 287 284 273 262 252 247 245 243 243 244 244 246 248 250 253 255 257 259 261 263 265 267 269 270 272 273 275 275 275 275 274 274 274 274
267 268 268 268 269 269 269 269 269 269 269 268 268 267 267 266 266 266 267 267 269 270 270 272 275 277 279 279 280 279 279 279 281 283 284 284 284 282 277 276 276 276 275 274 276 279 282 284 282 278 275 276 280 284 287 291 289 279 265 254 248 243 240 241 243 243 245 248 251 254 256 259 262 265 268 270 272 274 274 274 273 272 271 271 271 271 271 270
267 268 269 269 269 269 270 270 270 270 271 271 270 270 268 268 267 267 267 267 267 268 269 269 270 272 274 275 276 276 275 274 276 279 281 281 281 280 277 276 274 273 273 272 272 271 272 277 280 279 275 274 274 277 281 285 287 285 279 267 254 243 237 237 241 243 245 247 250 254 258 263 267 270 273 274 276 276 275 273 271 269 269 270 270 269 267 266
268 268 269 269 270 270 270 270 271 271 272 272 272 272 271 270 269 269 269 268 267 267 268 268 267 268 270 271 272 272 272 273 273 275 278 278 278 278 276 274 272 270 271 270 267 267 268 268 271 275 277 276 271 269 271 274 276 277 277 274 267 254 243 237 236 239 242 245 248 254 260 265 271 277 280 281 281 279 276 273 270 269 269 269 267 265 262 258
268 268 269 269 270 270 271 271 271 271 272 272 273 273 272 272 271 271 270 269 268 268 267 267 266 266 267 269 270 270 271 272 272 272 274 275 276 276 274 273 271 270 269 269 266 265 267 265 264 269 271 273 271 267 265 267 267 267 267 267 267 263 259 253 244 240 244 252 259 264 269 273 278 282 285 286 285 282 278 273 268 265 263 262 262 261 254 247
268 268 269 269 270 270 271 271 271 272 272 272 273 273 273 273 273 272 271 270 269 268 267 267 267 266 267 268 269 269 270 271 271 271 272 272 273 273 272 272 271 270 269 269 267 264 264 264 263 262 262 265 269 267 263 263 263 263 262 262 262 262 261 260 256 254 256 267 275 281 283 285 287 289 291 293 291 286 280 273 264 255 249 248 254 256 246 238
268 268 269 269 269 270 270 270 271 271 272 272 272 272 272 272 272 272 271 271 270 268 268 268 267 267 267 268 268 268 268 270 270 270 270 270 270 271 271 270 270 269 269 268 268 266 264 262 261 258 257 259 264 266 263 261 260 262 262 262 263 263 262 261 258 257 258 269 280 286 288 289 292 295 298 302 298 292 282 271 258 244 233 232 242 248 236 220
268 268 268 268 268 269 269 270 270 270 271 271 272 272 272 272 272 272 272 271 270 269 269 268 268 268 268 268 268 267 267 269 269 268 268 268 268 269 269 269 269 269 268 267 268 269 263 257 257 258 257 256 258 261 262 260 259 259 261 262 264 265 265 264 262 258 256 261 276 285 289 292 296 300 306 309 306 298 285 271 254 234 220 221 234 234 213 191
267 267 268 268 268 268 269 269 269 269 270 270 271 272 272 272 272 272 272 272 271 270 270 269 269 268 268 268 268 267 267 268 268 267 266 266 266 267 268 269 269 269 268 268 269 269 263 254 254 258 257 254 254 256 257 257 258 257 257 260 263 265 266 265 265 262 258 257 268 282 289 295 301 307 313 316 315 306 289 270 244 214 205 213 224 214 192 177
268 268 268 268 269 269 269 269 269 269 270 270 271 272 272 272 272 272 272 272 272 271 270 270 270 269 269 268 268 267 268 268 268 267 265 265 266 267 269 269 269 270 269 269 269 268 263 254 253 257 256 252 251 252 253 253 255 256 255 257 261 263 265 266 267 267 264 260 264 277 286 294 303 310 318 326 323 310 290 265 209 178 185 202 208 200 187 176
269 269 269 269 269 270 270 271 270 270 270 270 271 271 272 272 272 272 272 272 272 271 271 270 270 270 269 269 268 268 268 267 267 266 265 266 268 269 268 268 268 268 268 267 266 265 262 256 254 255 253 251 251 250 251 251 251 254 255 254 255 259 262 265 267 267 267 266 267 276 284 292 300 308 324 335 328 311 289 247 167 158 167 188 198 198 191 179
268 268 268 269 269 269 269 270 270 270 270 270 270 271 271 272 272 271 272 272 272 271 271 270 270 270 269 269 269 268 268 267 266 266 268 268 267 267 266 265 266 267 267 266 265 264 262 258 255 254 253 253 251 248 249 250 248 248 251 251 251 254 258 262 264 265 266 267 268 274 281 291 299 306 324 340 335 317 292 217 162 156 157 179 198 199 196 185
268 268 267 268 268 268 268 269 269 269 269 269 269 269 270 270 271 271 271 271 271 271 271 270 270 270 269 269 269 268 268 267 267 268 269 268 267 266 266 266 266 266 265 263 261 260 259 257 255 254 254 252 249 247 246 247 246 245 246 249 250 250 253 257 259 261 263 265 263 267 276 286 297 303 318 336 342 329 293 207 167 158 156 172 197 202 199 191
269 268 268 268 267 267 267 268 268 268 267 268 268 268 268 269 270 270 270 270 270 271 271 270 270 269 269 269 269 269 268 268 268 269 269 268 267 267 267 266 265 263 262 260 259 258 257 257 256 254 254 252 248 246 243 243 245 245 244 246 248 249 250 252 255 257 258 260 259 260 267 278 290 299 309 328 347 342 283 214 176 160 157 166 190 201 199 194
270 269 269 268 268 267 267 267 267 267 267 267 267 267 267 267 268 269 269 269 269 270 270 270 269 269 268 268 269 269 268 268 269 269 268 267 267 267 266 264 263 261 260 259 258 258 257 256 256 254 252 249 245 243 241 242 244 245 243 244 247 248 249 250 252 255 254 254 255 255 260 269 282 292 299 315 342 350 258 217 192 169 162 166 181 194 196 196
270 270 269 268 268 267 267 267 267 267 266 265 266 266 266 266 267 267 268 268 268 269 269 269 268 268 268 268 268 268 268 268 268 268 267 266 266 266 265 263 261 260 259 258 258 257 255 254 253 250 247 245 244 243 244 245 245 245 244 243 246 248 249 249 250 252 251 250 252 252 254 260 270 284 292 305 332 345 277 210 201 185 177 173 181 188 193 196
270 269 269 268 267 267 266 266 266 266 266 265 264 265 265 265 265 266 266 267 268 268 268 268 268 268 267 266 266 267 268 268 268 267 265 265 264 264 263 263 261 260 259 258 257 255 253 251 249 248 247 247 248 249 249 248 246 245 244 242 243 245 246 246 248 249 249 247 246 249 250 252 257 272 284 294 318 335 330 216 203 193 190 184 185 188 194 196
269 269 269 268 268 267 266 265 265 265 265 265 264 263 264 264 264 265 265 266 266 266 267 267 267 267 265 265 265 266 267 266 264 263 263 263 265 264 262 261 261 260 259 259 256 254 252 250 250 250 250 250 250 249 248 246 243 242 242 240 240 241 241 242 245 248 248 245 242 246 248 249 248 256 273 280 297 318 329 265 211 198 192 190 189 190 196 195
270 269 269 268 268 267 266 265 264 264 264 265 264 263 263 263 263 263 264 265 265 265 266 265 265 265 265 264 263 264 264 263 261 261 262 264 264 262 260 259 259 260 260 258 255 253 252 253 253 253 251 249 247 246 245 243 239 237 239 238 237 237 236 236 241 245 247 245 241 242 246 248 244 242 259 267 278 299 317 300 235 207 194 191 192 191 195 193
270 269 269 268 268 267 267 266 265 264 264 264 264 263 263 262 263 262 263 263 264 264 263 263 263 263 264 262 261 263 261 259 260 260 259 259 258 258 258 257 258 260 259 256 255 255 254 254 253 252 249 247 245 244 243 243 239 235 235 236 236 235 233 233 236 241 245 244 241 240 242 247 244 235 246 256 264 282 297 292 248 218 201 196 193 193 193 190
269 269 269 268 268 267 267 265 265 264 264 263 263 263 263 262 262 261 261 261 262 262 260 261 261 260 261 262 261 260 256 256 258 256 255 253 252 254 256 256 258 257 254 254 255 256 254 253 251 250 248 246 245 244 243 242 239 235 234 236 236 235 233 233 234 238 242 243 241 239 239 245 245 235 238 248 254 265 279 281 243 217 207 200 196 193 190 189
269 268 268 268 268 267 266 265 264 263 263 263 262 262 262 261 261 260 260 259 260 260 258 258 258 258 259 261 259 254 254 255 253 252 254 254 251 250 252 256 257 253 250 252 254 255 254 251 250 250 248 246 245 244 243 241 240 237 235 237 238 237 235 234 233 235 240 243 241 239 238 240 243 238 235 241 246 252 264 272 247 218 213 206 198 193 189 192
268 267 267 267 266 267 266 265 264 262 261 261 261 261 260 260 260 259 259 258 257 258 258 256 256 257 258 259 256 253 252 252 251 251 253 253 250 246 247 251 251 249 248 249 250 251 251 249 248 249 248 246 245 243 242 242 241 239 238 239 241 240 237 235 233 233 238 242 240 239 238 237 239 238 234 234 238 243 252 262 252 228 222 215 208 201 196 197
267 267 266 266 265 265 266 265 264 262 261 260 259 260 259 258 258 258 258 257 255 255 256 256 255 255 256 256 254 252 249 247 250 252 248 247 247 244 242 243 245 246 245 245 244 246 249 250 248 248 248 248 246 245 244 244 243 242 240 242 242 241 238 235 233 232 235 239 239 239 238 237 235 234 232 232 231 234 240 249 247 236 231 224 216 210 203 198
268 267 266 265 265 264 264 265 264 263 261 259 258 258 258 258 257 257 256 256 254 253 254 255 255 253 252 252 252 251 248 245 248 249 244 244 246 244 241 238 239 241 242 243 241 244 250 250 244 244 246 245 244 245 246 245 244 242 241 241 241 239 237 235 232 230 232 235 236 237 237 236 232 228 229 231 228 225 228 236 236 230 233 228 216 208 201 193
269 267 266 265 264 263 263 263 264 263 262 260 258 257 257 257 256 256 255 255 254 253 252 252 253 253 250 249 248 248 247 244 243 244 243 242 242 241 238 235 234 237 240 238 238 242 246 241 237 238 238 239 242 244 244 242 242 242 240 240 239 237 235 233 230 228 229 230 232 233 233 234 230 225 227 229 223 218 220 228 227 221 222 224 215 204 195 186
269 268 266 265 265 264 262 261 261 262 262 260 259 257 256 256 255 255 254 254 253 251 250 249 250 251 250 247 245 244 244 242 241 240 239 239 239 237 235 235 233 234 235 234 234 238 239 236 233 232 233 237 240 240 239 240 242 241 239 238 238 236 234 232 230 228 227 228 230 230 231 234 231 225 227 226 219 214 218 224 223 219 220 219 215 206 193 183
268 267 266 265 264 263 262 261 260 260 260 260 258 257 256 255 254 254 254 253 251 249 248 248 248 248 248 246 244 241 239 239 240 239 237 236 238 236 234 234 234 232 232 231 231 234 234 232 229 229 234 236 236 235 235 238 240 238 238 238 238 236 234 232 230 228 227 228 229 230 232 236 234 228 228 224 217 216 218 221 221 220 220 218 217 210 195 184
267 266 265 264 263 262 261 261 260 258 258 258 258 256 255 254 253 253 253 251 250 248 247 246 245 244 244 244 243 240 238 236 237 238 236 234 234 234 232 231 230 228 227 225 226 228 228 226 225 228 234 236 234 233 232 234 236 235 237 238 238 236 233 231 229 228 228 229 230 230 232 236 235 232 230 225 220 219 219 219 219 219 219 217 218 214 200 188
267 266 265 263 262 261 260 260 259 259 257 256 256 255 254 253 252 251 250 249 248 248 246 244 242 241 241 241 241 239 237 235 234 235 236 234 232 231 231 230 228 227 226 225 226 227 228 227 227 230 237 238 235 234 230 229 234 235 235 238 238 235 232 229 227 227 228 230 231 229 231 235 236 234 231 226 222 221 219 218 219 220 219 217 218 217 208 195
267 265 264 263 262 260 259 258 258 258 257 256 255 254 254 253 252 249 247 247 247 246 244 242 240 239 238 238 239 239 237 235 233 232 233 233 231 229 230 230 228 227 226 227 229 230 230 231 229 229 234 237 235 234 232 230 236 237 234 235 234 228 226 226 226 226 227 229 230 229 230 233 235 234 231 227 224 222 221 220 219 220 220 217 216 216 210 201
267 265 264 263 262 260 259 258 257 256 256 256 255 254 253 252 250 248 246 245 244 243 243 241 238 237 236 236 236 237 236 235 233 231 230 230 229 228 227 227 226 225 224 225 228 229 229 230 229 228 231 236 237 237 235 233 234 234 228 220 218 222 226 227 227 226 226 227 228 227 228 230 232 233 231 229 227 224 221 221 220 219 220 218 215 214 211 205
267 266 265 263 262 261 260 258 257 256 255 255 254 254 253 251 249 247 246 244 243 242 241 240 238 236 235 235 234 235 235 234 233 231 229 228 227 227 227 226 225 225 225 225 226 228 228 227 229 229 230 234 235 234 232 229 229 229 220 205 212 225 225 221 222 222 222 224 224 225 227 227 229 231 230 227 227 225 222 220 219 218 219 219 217 213 211 208
267 267 266 264 263 262 261 260 258 257 255 254 253 253 252 250 249 247 245 244 242 241 239 239 238 237 235 234 233 233 234 234 233 231 229 227 226 227 227 227 226 226 226 226 226 228 229 230 231 231 231 232 233 232 231 229 229 228 217 208 216 223 214 210 213 212 216 221 221 223 226 225 226 229 228 225 225 225 223 220 219 217 217 220 220 214 211 210
268 268 267 266 264 262 261 260 259 258 257 255 253 252 251 250 249 248 246 243 242 240 239 237 237 237 235 233 232 232 232 232 232 231 229 227 225 225 226 227 226 226 226 226 226 227 228 231 233 233 234 234 235 236 234 231 229 226 220 214 214 209 199 199 203 204 211 219 221 224 226 225 226 228 228 225 225 226 225 223 220 217 216 219 220 217 212 210
270 270 269 268 266 264 262 261 260 259 258 257 255 252 251 250 249 248 246 243 241 240 239 237 236 236 235 233 231 231 231 231 231 231 230 228 226 225 225 226 226 225 225 226 226 226 227 229 231 231 232 233 233 232 230 225 220 220 220 213 206 200 193 193 197 200 209 216 219 221 223 224 226 229 229 227 226 227 228 227 224 220 219 220 222 221 218 214
271 270 269 268 267 266 264 261 260 259 258 257 256 254 252 249 248 247 246 244 241 239 238 237 236 235 234 233 231 230 230 230 231 231 230 229 226 225 225 225 225 225 225 226 225 225 225 227 229 230 229 229 228 225 222 219 216 217 216 208 202 199 194 193 194 194 202 212 216 218 221 223 226 228 229 228 226 226 228 230 229 226 224 224 223 223 222 220
271 268 267 266 265 264 264 262 259 258 257 256 256 255 253 250 248 247 246 244 242 240 238 237 236 234 233 233 231 230 229 229 230 230 230 229 227 225 224 224 224 223 223 225 225 224 224 225 227 230 228 226 223 219 218 216 214 214 212 206 201 197 196 196 195 194 198 207 215 219 220 222 225 228 229 229 227 225 225 227 228 228 226 225 224 222 223 223
273 270 267 265 263 262 261 260 258 257 255 254 253 253 253 252 249 246 245 244 242 240 238 236 235 234 232 231 231 230 229 228 229 229 229 228 227 225 224 224 224 223 222 224 225 224 223 223 225 228 228 224 220 218 217 215 213 212 210 207 201 196 197 196 196 198 199 205 218 225 223 220 222 228 230 230 229 226 225 225 226 227 227 226 223 221 221 221
276 273 269 266 264 262 259 258 256 255 253 251 250 250 250 251 250 247 245 243 242 240 238 236 235 234 232 231 230 229 229 228 228 227 228 228 227 225 224 224 223 223 222 223 223 224 223 222 223 225 226 223 219 217 217 215 213 210 208 207 201 195 195 194 196 201 200 204 217 230 231 219 212 220 226 226 227 226 226 226 226 227 228 228 226 223 221 221
279 276 272 268 265 262 259 256 254 253 251 250 248 246 246 247 248 247 245 243 241 240 238 235 234 233 232 231 229 229 229 228 227 227 226 226 226 225 224 224 223 223 222 222 222 223 223 222 222 224 225 223 219 217 217 217 214 210 208 207 199 195 195 194 197 198 194 200 206 217 232 221 203 209 218 218 220 222 223 226 226 227 228 229 228 226 224 223
280 278 274 270 267 263 259 256 253 251 249 248 246 245 243 243 244 245 245 243 240 239 238 236 233 232 231 231 230 228 228 228 227 226 226 225 225 225 224 223 223 223 222 222 221 222 223 222 222 223 224 224 221 218 218 219 216 211 210 207 200 198 197 195 197 193 187 195 197 202 225 223 208 206 211 212 216 218 220 224 225 227 228 229 230 230 229 227
281 278 275 271 267 264 261 257 253 250 248 246 244 243 242 241 240 241 242 242 240 238 237 235 233 231 230 230 230 229 228 228 227 225 225 225 224 224 224 223 223 223 222 222 221 221 222 222 222 222 223 223 221 218 217 217 216 212 211 209 204 202 200 198 196 189 186 193 190 197 222 229 219 211 210 213 215 215 218 221 224 226 228 229 231 231 232 232
282 279 276 272 267 263 260 257 254 250 247 245 242 240 239 239 238 238 239 239 239 237 235 235 233 231 229 229 229 229 228 228 227 226 224 224 224 224 223 223 223 223 222 222 221 221 221 221 221 222 222 222 222 220 217 216 215 212 212 210 207 205 203 199 194 190 192 191 186 196 217 230 228 218 211 214 217 216 217 220 223 226 228 230 231 231 232 233
285 281 278 274 269 263 259 255 253 250 247 244 241 239 237 236 236 236 236 237 237 236 235 234 233 231 229 228 228 228 228 228 227 227 225 224 223 223 223 223 223 222 222 222 221 221 221 220 220 221 221 221 222 221 218 216 214 212 211 211 209 207 205 200 194 196 196 191 192 202 213 227 235 229 218 216 217 217 217 219 221 223 225 229 231 232 232 233
287 284 280 276 271 265 259 254 250 249 247 244 241 237 235 234 234 234 234 235 235 234 233 232 232 231 229 227 227 227 228 228 227 227 226 224 223 223 223 223 223 222 222 222 221 221 221 220 220 220 220 220 221 222 220 217 214 212 211 211 211 210 207 202 198 199 200 197 204 213 216 223 237 240 233 224 217 214 214 214 215 217 218 222 226 230 232 233
290 287 283 278 272 266 260 254 249 246 245 244 241 237 234 232 232 232 232 233 233 233 231 230 230 230 229 227 226 226 227 228 227 227 226 225 224 223 223 223 223 223 222 222 221 221 221 221 220 219 220 220 221 222 221 218 215 213 211 211 212 212 210 205 202 203 203 203 210 217 217 220 230 238 241 235 224 215 213 213 213 214 215 216 220 225 230 233
294 290 286 280 273 268 262 257 251 245 243 242 241 237 233 231 230 230 230 230 232 232 230 229 228 229 228 227 226 226 226 227 227 227 226 226 224 224 223 223 223 223 223 222 222 222 222 221 220 220 219 220 220 221 221 220 217 214 212 211 212 213 212 210 208 207 206 205 210 214 216 220 226 230 236 239 233 224 219 216 213 212 215 218 220 224 229 232
296 292 289 283 277 270 264 259 254 248 243 241 240 237 233 230 229 228 228 228 229 230 229 227 226 227 227 226 225 225 225 226 227 227 226 226 225 224 224 223 223 223 223 223 222 222 222 221 221 220 219 220 221 220 221 221 218 215 213 212 212 213 213 213 212 211 209 208 209 213 215 221 227 229 232 238 239 232 225 219 215 214 218 220 222 225 228 231